Location: Asheville, NC
(35.6000°N, 82.5500°W)
Time: 05:48:09
(UTC-04:00)

SEEDS - Pass Details

Date: 10 January 2018
Orbit: 587 x 605 km, 97.5° (Epoch: 20 April)

Event Time Altitude Azimuth Distance (km) Brightness Sun altitude
Rises 20:07:25 0° 207° (SSW) 2,842 ? -30.2°
Reaches altitude 10° 20:10:23 10° 230° (SW) 1,943 ? -30.8°
Maximum altitude 20:12:54 15° 267° (W) 1,616 ? -31.4°
Drops below altitude 10° 20:15:26 10° 304° (NW) 1,947 ? -31.9°
Sets 20:18:25 0° 327° (NNW) 2,852 ? -32.5°
